CAPE
1 3 4 5 5 4 5 8 6 6 7 9 7 7 5 4 5 5 3 3 3 2 3 3 3 2 1 1 0 0 0 1 1 1 1 1 2 2 3 2 2 0 0 0 0 nan nan 0 0 1 3 7 12 12 15 16 16 19 19 23 23 30 39 48 48 60 69 82 85 85 88 92 89 89 82 81 72 72 63 60 60 58 56 56 56 57
2 3 4 4 4 4 5 7 7 7 6 6 8 8 8 8 6 6 5 1 1 0 0 2 2 2 1 1 1 1 0 1 1 1 1 1 1 1 3 2 2 1 0 0 0 0 0 1 1 4 9 13 13 13 11 11 11 12 13 13 13 14 18 24 24 32 39 48 56 56 66 73 71 71 70 65 63 63 61 59 59 52 51 50 50 53
2 1 4 4 4 4 4 6 7 7 6 4 6 6 10 11 7 7 5 0 0 1 nan 0 0 1 4 4 1 1 1 2 2 2 2 2 2 2 3 3 3 2 1 0 0 1 2 4 4 8 12 12 7 7 4 5 5 4 2 2 2 1 3 3 3 9 12 15 23 23 32 43 50 50 50 54 58 58 56 50 50 43 41 38 38 40
0 0 2 4 4 4 3 3 6 6 5 5 6 6 8 6 4 4 3 1 1 3 2 0 0 0 5 2 0 0 2 3 4 4 4 4 3 3 4 2 2 1 1 2 2 4 7 10 10 14 12 6 3 3 1 1 1 0 nan nan nan nan 0 2 2 4 5 10 13 13 18 27 30 30 38 42 45 45 43 38 38 36 33 34 34 38
0 1 2 2 2 2 5 4 3 3 5 6 6 6 5 4 4 4 4 1 1 1 0 nan nan nan 0 2 1 1 2 3 4 4 5 6 6 6 6 5 5 6 5 9 9 11 13 13 13 13 8 3 5 5 5 4 4 3 4 4 4 6 8 12 12 15 17 19 22 22 20 23 27 27 31 35 38 38 35 31 31 31 29 33 33 36
0 1 3 2 2 1 4 5 5 5 3 3 3 3 1 1 4 4 4 3 3 0 nan nan nan nan nan 0 0 0 1 2 3 3 3 4 5 5 6 6 6 11 11 9 9 14 12 13 13 12 7 8 8 8 7 7 7 7 7 10 10 15 19 23 23 23 25 23 25 25 24 26 26 26 30 31 31 31 32 32 32 31 29 30 30 35
0 1 2 1 1 2 4 4 1 1 2 2 0 0 nan 0 0 0 0 1 1 1 0 nan nan nan nan nan nan nan nan nan nan nan nan nan nan nan 0 1 1 3 5 4 4 4 5 4 4 5 6 5 5 5 5 5 5 5 5 6 6 12 17 20 20 23 22 22 23 23 24 28 28 28 30 28 28 28 27 29 29 28 29 30 30 33
0 1 1 1 1 1 2 2 0 0 0 0 nan nan nan nan 0 0 0 0 0 nan nan nan nan nan nan nan nan nan nan nan nan nan nan nan nan nan nan nan nan nan nan nan nan nan nan nan nan nan nan nan nan nan nan nan nan nan nan nan nan nan 1 5 5 11 15 20 25 25 25 27 27 27 25 24 22 22 22 26 26 31 37 38 38 38
nan 0 1 0 0 nan 0 2 0 0 0 1 0 0 nan nan nan nan nan nan nan nan nan nan nan nan nan nan nan nan nan nan nan nan nan nan nan nan nan nan nan nan nan nan nan nan nan nan nan nan nan nan nan nan nan nan nan nan nan nan nan nan nan 0 0 5 12 18 22 22 26 27 30 30 29 26 25 25 24 25 25 31 35 37 37 38
0 0 0 1 1 2 0 1 2 2 0 0 0 0 nan nan nan nan nan nan nan nan nan nan nan nan nan nan nan nan nan nan nan nan nan nan nan nan nan nan nan nan nan nan nan nan nan nan nan nan nan nan nan nan nan nan nan nan nan nan nan nan nan 0 0 2 7 13 19 19 26 30 32 32 30 29 28 28 26 27 27 28 33 34 34 37
nan nan nan 0 0 2 2 1 0 0 1 1 1 1 nan nan nan nan nan nan nan nan nan nan nan nan nan nan nan nan nan nan nan nan nan nan nan nan nan nan nan nan nan nan nan nan nan nan nan nan nan nan nan nan nan nan nan nan nan nan nan nan nan nan nan 1 3 9 16 16 21 30 34 34 35 34 34 34 29 28 28 28 28 29 29 31
nan nan nan nan nan nan nan 0 0 0 nan nan nan nan nan nan nan nan nan nan nan nan nan nan nan nan nan nan nan nan nan nan nan nan nan nan nan nan nan nan nan nan nan nan nan nan nan nan nan nan nan nan nan nan nan nan nan nan nan nan nan nan nan nan nan 0 2 6 12 12 17 24 30 30 36 35 35 35 32 29 29 27 26 25 25 27
nan nan nan nan nan nan nan nan nan nan nan nan nan nan nan nan nan nan nan nan nan nan nan nan nan nan nan nan nan nan nan nan nan nan nan nan nan nan nan nan nan nan nan nan nan nan nan nan nan nan nan nan nan nan nan nan nan nan nan nan nan nan nan nan nan 1 3 5 9 9 14 17 24 24 31 33 32 32 31 29 29 26 22 23 23 26
nan nan nan nan nan nan nan nan nan nan nan nan nan nan nan nan nan nan nan nan nan nan nan nan nan nan nan nan nan nan nan nan nan nan nan nan nan nan nan nan nan nan nan nan nan nan nan nan nan nan nan nan nan nan nan nan nan nan nan nan nan nan 0 0 0 2 5 7 11 11 13 17 20 20 25 27 27 27 28 26 26 24 23 24 24 28
nan nan nan nan nan nan nan nan nan nan nan nan nan nan nan nan nan nan nan nan nan nan nan nan nan nan nan nan nan nan nan nan nan nan nan nan nan nan nan nan nan nan nan nan nan nan nan nan nan nan nan nan nan nan nan nan nan nan 0 1 1 2 3 5 5 8 12 16 17 17 18 19 20 20 24 26 25 25 25 23 23 25 23 26 26 35
nan nan nan nan nan nan nan nan nan nan nan nan nan nan nan nan nan nan nan nan nan nan nan nan nan nan nan nan nan nan nan nan nan nan nan nan nan nan nan nan nan nan nan nan nan nan nan nan nan nan nan nan nan nan nan 0 0 2 4 5 5 6 8 13 13 14 17 18 20 20 23 25 25 25 25 26 27 27 26 26 26 27 29 35 35 42
nan nan nan nan nan nan nan nan nan nan nan nan nan nan nan nan nan nan nan nan nan nan nan nan nan nan nan nan nan nan nan nan nan nan nan nan nan nan nan nan nan nan nan nan nan nan nan nan nan nan nan nan nan nan 0 1 1 4 6 7 7 8 11 13 13 16 17 20 23 23 24 26 27 27 27 29 27 27 28 29 29 33 35 40 40 47
nan nan nan nan nan nan nan nan nan nan nan nan nan nan nan nan nan nan nan nan nan nan nan nan nan nan nan nan nan nan nan nan nan nan nan nan nan nan nan nan nan nan nan nan nan nan nan nan nan nan nan nan nan nan 0 1 1 4 5 6 6 8 10 11 11 13 16 18 22 22 22 27 26 26 28 30 30 30 32 36 36 39 40 42 42 45
nan nan nan nan nan nan nan nan nan nan nan nan nan nan nan nan nan nan nan nan nan nan nan nan nan nan nan nan nan nan nan nan nan nan nan nan nan nan nan nan nan nan nan nan nan nan nan nan nan nan nan nan nan nan nan 1 1 4 4 5 5 6 7 10 10 11 13 15 17 17 18 20 24 24 26 28 33 33 35 37 37 37 37 40 40 41
nan nan nan nan nan nan nan nan nan nan nan nan nan nan nan 0 nan nan nan nan nan nan nan nan nan nan nan nan nan nan nan nan nan nan nan nan nan nan nan nan nan nan nan nan nan nan nan nan nan nan nan nan nan nan nan 0 0 2 3 4 4 4 5 6 6 8 10 12 13 13 16 18 20 20 25 27 33 33 33 37 37 37 37 35 35 36
nan nan nan nan nan nan nan nan 0 0 1 2 1 1 1 0 nan nan nan nan nan nan nan nan nan nan nan nan nan nan nan nan nan nan nan nan nan nan nan nan nan nan nan nan nan nan nan nan nan nan nan nan nan nan nan 0 0 0 1 2 2 3 4 5 5 5 6 10 11 11 13 16 19 19 21 24 27 27 31 31 31 34 37 38 38 34
nan nan nan nan nan nan nan 0 4 4 4 5 2 2 0 nan nan nan nan nan nan nan nan nan nan nan nan nan nan nan nan nan nan nan nan nan nan nan nan nan nan nan nan nan nan nan nan nan nan nan nan nan nan nan nan 0 0 0 1 2 2 3 4 3 3 6 6 8 9 9 11 15 16 16 19 23 25 25 30 32 32 32 37 40 40 37
nan nan nan nan nan nan nan 0 4 4 3 3 1 1 1 0 nan nan nan nan nan nan nan nan nan nan nan nan nan nan nan nan nan nan nan nan nan nan nan nan nan nan nan nan nan nan nan nan nan nan nan nan nan nan nan 0 0 0 2 4 4 5 6 9 9 8 11 12 13 13 19 19 21 21 25 26 28 28 30 30 30 32 35 34 34 37
nan nan nan nan nan 0 0 0 1 1 2 2 2 2 9 5 1 1 0 0 0 0 0 0 0 nan nan nan nan nan nan nan nan nan nan nan nan nan nan nan nan nan nan nan nan nan nan nan nan nan nan nan nan nan nan 0 0 1 3 5 5 8 9 13 13 12 13 11 16 16 17 19 24 24 24 27 25 25 28 28 28 28 30 29 29 29
nan nan nan nan nan 4 nan nan 1 1 6 12 14 14 18 15 8 8 4 3 3 2 2 0 0 nan nan nan nan nan nan nan nan nan nan nan nan nan nan nan nan nan nan nan nan nan nan nan nan nan nan nan nan nan nan nan nan 1 3 5 5 6 8 6 6 7 9 7 10 10 12 11 15 15 15 17 17 17 19 18 18 22 22 23 23 22
0 1 1 2 2 4 6 9 11 11 9 12 16 16 17 16 13 13 8 5 5 2 1 nan nan nan nan nan nan nan nan nan nan nan nan nan nan nan nan nan nan nan nan nan nan nan nan nan nan nan nan nan nan nan nan nan nan 0 1 2 2 3 3 3 3 3 4 5 6 6 9 9 10 10 11 11 12 12 14 16 16 17 18 19 19 20
1 1 2 5 5 8 11 12 12 12 12 13 10 10 10 12 10 10 6 0 0 nan nan nan nan nan nan nan nan nan nan nan nan nan nan nan nan nan nan nan nan nan nan nan nan nan nan nan nan nan nan nan nan nan nan nan nan nan nan nan nan 0 0 1 1 1 3 4 5 5 6 7 10 10 10 11 12 12 13 15 15 15 16 16 16 20
4 3 5 7 7 8 8 7 7 7 8 11 15 15 14 8 4 4 1 nan nan nan nan nan nan nan nan nan nan nan nan nan nan nan nan nan nan nan nan nan nan nan nan nan nan nan nan nan nan nan nan nan nan nan nan nan nan nan nan nan nan nan nan nan nan nan 0 1 2 2 3 5 8 8 10 10 10 10 12 12 12 13 13 10 10 6
1 4 5 4 4 3 2 2 5 5 7 11 15 15 12 4 2 2 0 nan nan nan nan nan nan nan nan nan nan nan nan nan nan nan nan nan nan nan nan nan nan nan nan nan nan nan nan nan nan nan nan nan nan nan nan nan nan nan nan nan nan nan nan nan nan nan nan nan 0 0 1 3 5 5 7 8 10 10 10 10 10 11 8 5 5 3
2 0 nan 0 0 nan 1 3 4 4 5 6 7 7 7 3 2 2 0 nan nan nan nan nan nan nan nan nan nan nan nan nan nan nan nan nan nan nan nan nan nan nan nan nan nan nan nan nan nan nan nan nan nan nan nan nan nan nan nan nan nan nan nan nan nan nan nan nan nan nan 0 0 2 2 3 5 5 5 6 6 6 7 3 2 2 2
4 5 4 2 2 1 0 1 0 0 1 1 1 1 1 1 0 0 nan nan nan nan nan nan nan nan nan nan nan nan nan nan nan nan nan nan nan nan nan nan nan nan 0 0 0 nan nan nan nan nan nan nan nan nan nan nan nan nan nan nan nan nan nan nan nan nan nan nan nan nan nan nan 0 0 0 1 2 2 2 3 3 3 1 0 0 0
0 nan nan nan nan nan nan nan nan nan nan nan nan nan nan nan nan nan nan nan nan nan nan nan nan nan nan nan nan nan nan nan nan nan nan nan nan nan nan 0 0 1 1 1 1 0 nan nan nan nan nan nan nan nan nan nan nan nan nan nan nan nan nan nan nan nan nan nan nan nan nan nan nan nan nan nan 0 0 0 1 1 1 0 nan nan 0
nan nan nan nan nan nan nan nan nan nan nan nan nan nan nan nan nan nan nan nan nan nan nan nan nan nan nan nan nan nan nan nan nan nan nan 0 1 1 1 0 0 0 1 0 0 0 nan nan nan nan nan nan nan nan nan nan nan nan nan nan nan nan nan nan nan nan nan nan nan nan nan nan nan nan nan nan nan nan 0 0 0 1 1 0 0 0
nan nan nan nan nan nan nan nan nan nan nan nan nan nan nan nan nan nan nan nan nan nan 0 0 0 nan nan nan nan nan nan nan nan nan 0 1 1 1 1 0 0 0 0 nan nan 0 nan nan nan nan nan nan nan nan nan nan nan nan nan nan nan nan nan nan nan nan nan nan nan nan nan nan nan nan nan nan nan nan nan 0 0 2 2 2 2 0
nan nan nan nan nan nan nan nan nan nan nan nan nan nan nan nan nan nan 0 0 0 0 0 0 0 0 0 nan nan nan nan nan nan nan nan 0 1 1 0 nan nan nan nan 0 0 0 nan nan nan nan nan nan nan nan nan nan nan nan nan nan nan nan nan nan nan nan nan nan nan nan nan nan nan nan nan nan nan nan nan 0 0 2 3 5 5 4
nan nan nan nan nan nan nan nan nan nan nan nan nan nan nan nan nan nan nan 0 0 0 1 2 2 2 2 1 0 0 nan nan nan nan nan nan 0 0 0 nan nan 0 0 1 1 1 0 0 0 0 0 nan nan nan nan nan nan nan nan nan nan nan nan nan nan nan nan nan nan nan nan nan nan nan nan nan nan nan nan 0 0 2 3 5 5 6
nan nan nan nan nan nan nan nan nan nan nan nan nan nan nan nan nan nan nan 0 0 0 0 1 1 0 1 0 0 0 nan nan nan nan 0 1 0 0 0 nan nan 0 0 1 1 1 2 0 0 0 0 nan nan nan nan nan nan nan nan nan nan nan nan nan nan nan nan nan nan nan nan nan nan nan nan nan nan nan 0 0 0 0 1 2 2 4
nan nan nan nan nan nan nan nan nan nan nan nan nan nan nan nan nan nan nan 0 0 0 nan nan nan nan 0 1 2 2 0 0 1 1 2 3 2 2 1 0 0 0 1 1 1 2 2 1 1 0 nan nan nan nan nan nan nan nan nan nan nan nan nan nan nan nan nan nan nan nan nan nan nan nan nan nan nan nan nan nan nan nan nan 0 0 1
nan nan nan nan nan nan nan nan nan nan nan nan nan nan nan nan nan nan nan nan nan nan nan nan nan nan 0 0 0 0 1 0 0 0 0 2 3 3 1 1 1 1 1 3 3 3 2 1 1 0 0 nan nan nan nan nan nan nan nan nan nan nan nan nan nan nan nan nan nan nan nan nan nan nan nan nan nan nan nan nan nan nan nan nan nan 0
nan nan nan nan nan nan nan nan nan nan nan nan nan nan nan nan nan nan nan nan nan nan nan nan nan nan 0 nan nan nan 1 3 4 4 3 2 5 5 2 2 2 1 2 4 4 4 3 2 2 2 2 1 0 0 nan nan nan nan 0 0 0 nan nan nan nan nan nan nan nan nan nan nan nan nan nan nan nan nan nan nan nan nan nan nan nan nan
nan nan nan nan nan nan nan nan nan nan nan nan nan nan nan nan nan nan nan nan nan nan nan nan nan nan 0 0 nan nan 0 4 4 4 6 0 3 3 3 2 2 2 2 3 3 4 4 2 2 3 2 2 2 2 1 0 0 0 1 0 0 nan nan nan nan nan nan nan nan nan nan nan nan nan nan nan nan nan nan nan nan nan nan nan nan nan
nan nan nan nan nan nan nan nan nan nan nan nan nan nan nan nan nan nan nan nan nan nan nan nan nan nan nan nan 0 0 2 3 5 5 5 0 0 0 4 3 3 2 3 3 3 3 4 3 3 3 2 2 2 2 0 0 0 0 1 0 0 0 nan nan nan nan nan nan nan nan nan nan nan nan nan nan nan nan nan nan nan nan nan nan nan nan
nan nan nan nan nan nan nan nan nan nan nan nan nan nan nan nan nan nan nan nan nan nan nan nan nan nan nan nan nan nan 1 4 3 3 5 1 nan nan 4 3 3 3 3 3 3 3 3 4 4 3 3 2 2 2 1 0 0 0 0 0 0 0 0 nan nan nan nan nan nan nan nan nan nan nan nan nan nan nan nan nan nan 0 nan nan nan nan
nan nan nan nan nan nan nan nan nan nan nan nan nan nan nan nan nan nan nan nan nan nan nan 0 0 0 0 0 nan nan nan 2 3 3 3 5 1 1 4 5 5 5 5 4 4 3 3 3 3 2 2 2 2 2 1 1 1 0 nan 0 0 1 0 nan nan nan nan nan nan nan nan nan nan nan nan nan nan nan nan nan nan nan nan nan nan nan
nan nan nan nan nan nan nan nan nan nan nan nan nan nan nan nan nan nan nan 0 0 0 0 1 1 0 0 nan nan nan nan 0 3 3 3 5 7 7 7 7 7 6 6 5 5 3 3 3 3 2 2 3 3 3 1 0 0 0 0 0 0 1 0 0 0 0 nan nan nan nan nan 0 0 0 nan nan nan nan nan nan nan nan nan nan nan nan
nan nan nan nan nan nan nan nan nan nan nan nan nan nan nan nan nan nan 1 1 1 1 1 2 2 0 0 nan nan nan 0 0 1 1 2 3 6 6 8 8 8 6 6 5 5 5 3 3 3 3 2 3 3 3 1 0 0 0 0 1 1 0 0 0 0 0 nan nan 0 0 0 1 0 0 0 nan nan nan nan nan nan nan nan nan nan nan
nan nan nan nan nan nan nan nan nan nan nan nan nan nan nan 0 0 0 1 2 2 1 1 2 2 0 0 nan nan nan 0 0 0 0 1 1 3 3 5 7 7 8 6 5 5 6 5 5 5 4 3 2 1 1 0 1 1 1 1 0 0 0 0 0 0 0 0 0 0 0 1 2 1 1 0 nan nan nan nan nan nan nan nan nan nan nan
nan nan nan nan nan nan nan nan nan nan nan nan nan nan nan 0 0 0 1 1 1 2 2 0 0 0 0 nan nan nan 0 0 0 0 0 0 2 2 3 4 4 5 7 6 6 7 5 7 7 7 5 2 1 1 0 0 0 1 0 0 0 0 0 0 0 0 1 1 3 3 4 4 1 1 0 0 nan nan nan nan nan nan nan nan nan nan
nan nan nan nan nan nan nan nan nan nan nan nan nan nan nan 0 2 2 0 1 1 1 1 0 0 0 nan nan nan nan nan 0 0 0 0 0 0 0 1 2 2 2 4 5 5 5 6 8 8 7 4 2 1 1 0 0 0 0 0 1 1 1 1 0 0 0 0 2 4 4 6 3 2 2 2 1 0 0 nan nan nan nan nan nan nan nan
nan nan nan nan nan nan nan nan nan nan nan nan nan nan nan nan 0 0 0 0 0 0 0 nan nan nan nan nan nan nan nan nan nan nan nan 0 0 0 1 1 1 1 2 2 2 2 3 5 5 6 5 2 1 1 1 0 0 0 1 1 1 1 1 1 1 1 1 2 5 5 8 6 5 5 4 3 1 1 nan nan nan nan nan nan nan nan
nan nan nan nan nan nan nan nan nan nan nan nan nan nan nan nan nan nan nan 0 0 0 nan nan nan nan nan nan nan nan nan nan nan nan nan 0 1 1 2 2 2 2 2 1 1 1 1 1 1 1 3 1 0 0 0 0 0 0 1 1 1 1 2 2 2 2 3 2 5 5 9 9 5 5 3 3 1 1 0 nan nan nan nan nan nan nan
CIN
-0 -0 -0 -0 -0 -0 -0 -0 -0 -0 -0 -0 -0 -0 -0 -0 -0 -0 -0 -0 -0 -0 -0 -0 -0 -0 -0 -0 -0 -0 -0 -0 -0 -0 -0 -0 -0 -0 -0 -0 -0 -0 -0 -0 -0 nan nan -0 -0 -0 -0 -0 -0 -0 -0 -0 -0 -0 -0 -0 -0 -0 -0 -0 -0 -0 -0 -0 -0 -0 -0 -0 -0 -0 -0 -0 -0 -0 -0 -0 -0 -0 -0 -0 -0 -0
-0 -0 -0 -0 -0 -0 -0 -0 -0 -0 -0 -0 -0 -0 -0 -0 -0 -0 -0 -0 -0 -0 -0 -0 -0 -0 -0 -0 -0 -0 -0 -0 -0 -0 -0 -0 -0 -0 -0 -0 -0 -0 -0 -0 -0 -0 -0 -0 -0 -0 -0 -0 -0 -0 -0 -0 -0 -0 -0 -0 -0 -0 -0 -0 -0 -0 -0 -0 -0 -0 -0 -0 -0 -0 -0 -0 -0 -0 -0 -0 -0 -0 -0 -0 -0 -0
-0 -0 -0 -0 -0 -0 -0 -0 -0 -0 -0 -0 -0 -0 -0 -0 -0 -0 -0 -0 -0 -0 nan -0 -0 -0 -0 -0 -0 -0 -0 -0 -0 -0 -0 -0 -0 -0 -0 -0 -0 -0 -0 -0 -0 -0 -0 -0 -0 -0 -0 -0 -0 -0 -0 -0 -0 -0 -0 -0 -0 -0 -0 -0 -0 -0 -0 -0 -0 -0 -0 -0 -0 -0 -0 -0 -0 -0 -0 -0 -0 -0 -0 -0 -0 -0
-0 -0 -0 -0 -0 -0 -0 -0 -0 -0 -0 -0 -0 -0 -0 -0 -0 -0 -0 -0 -0 -0 -0 -0 -0 -0 -0 -0 -0 -0 -0 -0 -0 -0 -0 -0 -0 -0 -0 -0 -0 -0 -0 -0 -0 -0 -0 -0 -0 -0 -0 -0 -0 -0 -0 -0 -0 -0 nan nan nan nan -1 -0 -0 -0 -0 -0 -0 -0 -0 -0 -0 -0 -0 -0 -0 -0 -0 -0 -0 -0 -0 -0 -0 -0
-0 -0 -0 -0 -0 -0 -0 -0 -0 -0 -0 -0 -0 -0 -0 -0 -0 -0 -0 -0 -0 -0 -0 nan nan nan -0 -0 -0 -0 -0 -0 -0 -0 -0 -0 -0 -0 -0 -0 -0 -0 -0 -0 -0 -0 -0 -0 -0 -0 -0 -0 -0 -0 -0 -0 -0 -0 -0 -0 -0 -0 -0 -0 -0 -0 -0 -0 -0 -0 -0 -0 -0 -0 -0 -0 -0 -0 -0 -0 -0 -0 -0 -0 -0 -0
-0 -0 -0 -0 -0 -0 -0 -0 -0 -0 -0 -0 -0 -0 -0 -0 -0 -0 -0 -0 -0 -0 nan nan nan nan nan -0 -0 -0 -0 -0 -0 -0 -0 -0 -0 -0 -0 -0 -0 -0 -0 -0 -0 -0 -0 -0 -0 -0 -0 -0 -0 -0 -0 -0 -0 -0 -0 -0 -0 -0 -0 -0 -0 -0 -0 -0 -0 -0 -0 -0 -0 -0 -0 -0 -0 -0 -0 -0 -0 -0 -0 -0 -0 -0
-0 -0 -0 -0 -0 -0 -0 -0 -0 -0 -0 -0 -0 -0 nan -0 -0 -0 -0 -0 -0 -0 -0 nan nan nan nan nan nan nan nan nan nan nan nan nan nan nan -0 -0 -0 -0 -0 -0 -0 -0 -0 -0 -0 -0 -0 -0 -0 -0 -0 -0 -0 -0 -0 -0 -0 -0 -0 -0 -0 -0 -0 -0 -0 -0 -0 -0 -0 -0 -0 -0 -0 -0 -0 -0 -0 -0 -0 -0 -0 -0
-0 -0 -0 -0 -0 -0 -0 -0 -0 -0 -0 -0 nan nan nan nan -0 -0 -0 -0 -0 nan nan nan nan nan nan nan nan nan nan nan nan nan nan nan nan nan nan nan nan nan nan nan nan nan nan nan nan nan nan nan nan nan nan nan nan nan nan nan nan nan -0 -0 -0 -0 -0 -0 -0 -0 -0 -0 -0 -0 -0 -0 -0 -0 -0 -0 -0 -0 -0 -0 -0 -0
nan -0 -0 -0 -0 nan -0 -0 -0 -0 -0 -0 -0 -0 nan nan nan nan nan nan nan nan nan nan nan nan nan nan nan nan nan nan nan nan nan nan nan nan nan nan nan nan nan nan nan nan nan nan nan nan nan nan nan nan nan nan nan nan nan nan nan nan nan -0 -0 -0 -0 -0 -0 -0 -0 -0 -0 -0 -0 -0 -0 -0 -0 -0 -0 -0 -0 -0 -0 -0
-0 -0 -0 -0 -0 -0 -0 -0 -0 -0 -0 -0 -0 -0 nan nan nan nan nan nan nan nan nan nan nan nan nan nan nan nan nan nan nan nan nan nan nan nan nan nan nan nan nan nan nan nan nan nan nan nan nan nan nan nan nan nan nan nan nan nan nan nan nan -0 -0 -0 -0 -0 -0 -0 -0 -0 -0 -0 -0 -0 -0 -0 -0 -0 -0 -0 -0 -0 -0 -0
nan nan nan -0 -0 -0 -0 -0 -0 -0 -0 -0 -0 -0 nan nan nan nan nan nan nan nan nan nan nan nan nan nan nan nan nan nan nan nan nan nan nan nan nan nan nan nan nan nan nan nan nan nan nan nan nan nan nan nan nan nan nan nan nan nan nan nan nan nan nan -0 -0 -0 -0 -0 -0 -0 -0 -0 -0 -0 -0 -0 -0 -0 -0 -0 -0 -0 -0 -0
nan nan nan nan nan nan nan -0 -0 -0 nan nan nan nan nan nan nan nan nan nan nan nan nan nan nan nan nan nan nan nan nan nan nan nan nan nan nan nan nan nan nan nan nan nan nan nan nan nan nan nan nan nan nan nan nan nan nan nan nan nan nan nan nan nan nan -0 -0 -0 -0 -0 -0 -0 -0 -0 -0 -0 -0 -0 -0 -0 -0 -0 -0 -0 -0 -0
nan nan nan nan nan nan nan nan nan nan nan nan nan nan nan nan nan nan nan nan nan nan nan nan nan nan nan nan nan nan nan nan nan nan nan nan nan nan nan nan nan nan nan nan nan nan nan nan nan nan nan nan nan nan nan nan nan nan nan nan nan nan nan nan nan -0 -0 -0 -0 -0 -0 -0 -0 -0 -0 -0 -0 -0 -0 -0 -0 -0 -0 -0 -0 -0
nan nan nan nan nan nan nan nan nan nan nan nan nan nan nan nan nan nan nan nan nan nan nan nan nan nan nan nan nan nan nan nan nan nan nan nan nan nan nan nan nan nan nan nan nan nan nan nan nan nan nan nan nan nan nan nan nan nan nan nan nan nan -0 -0 -0 -0 -0 -0 -0 -0 -0 -0 -0 -0 -0 -0 -0 -0 -0 -0 -0 -0 -0 -0 -0 -0
nan nan nan nan nan nan nan nan nan nan nan nan nan nan nan nan nan nan nan nan nan nan nan nan nan nan nan nan nan nan nan nan nan nan nan nan nan nan nan nan nan nan nan nan nan nan nan nan nan nan nan nan nan nan nan nan nan nan -0 -0 -0 -0 -0 -0 -0 -0 -0 -0 -0 -0 -0 -0 -0 -0 -0 -0 -0 -0 -0 -0 -0 -0 -0 -0 -0 -0
nan nan nan nan nan nan nan nan nan nan nan nan nan nan nan nan nan nan nan nan nan nan nan nan nan nan nan nan nan nan nan nan nan nan nan nan nan nan nan nan nan nan nan nan nan nan nan nan nan nan nan nan nan nan nan -0 -0 -0 -0 -0 -0 -0 -0 -0 -0 -0 -0 -0 -0 -0 -0 -0 -0 -0 -0 -0 -0 -0 -0 -0 -0 -0 -0 -0 -0 -0
nan nan nan nan nan nan nan nan nan nan nan nan nan nan nan nan nan nan nan nan nan nan nan nan nan nan nan nan nan nan nan nan nan nan nan nan nan nan nan nan nan nan nan nan nan nan nan nan nan nan nan nan nan nan -0 -0 -0 -0 -0 -0 -0 -0 -0 -0 -0 -0 -0 -0 -0 -0 -0 -0 -0 -0 -0 -0 -0 -0 -0 -0 -0 -0 -0 -0 -0 -0
nan nan nan nan nan nan nan nan nan nan nan nan nan nan nan nan nan nan nan nan nan nan nan nan nan nan nan nan nan nan nan nan nan nan nan nan nan nan nan nan nan nan nan nan nan nan nan nan nan nan nan nan nan nan -0 -0 -0 -0 -0 -0 -0 -0 -0 -0 -0 -0 -0 -0 -0 -0 -0 -0 -0 -0 -0 -0 -0 -0 -0 -0 -0 -0 -0 -0 -0 -0
nan nan nan nan nan nan nan nan nan nan nan nan nan nan nan nan nan nan nan nan nan nan nan nan nan nan nan nan nan nan nan nan nan nan nan nan nan nan nan nan nan nan nan nan nan nan nan nan nan nan nan nan nan nan nan -0 -0 -0 -0 -0 -0 -0 -0 -0 -0 -0 -0 -0 -0 -0 -0 -0 -0 -0 -0 -0 -0 -0 -0 -0 -0 -0 -0 -0 -0 -0
nan nan nan nan nan nan nan nan nan nan nan nan nan nan nan -0 nan nan nan nan nan nan nan nan nan nan nan nan nan nan nan nan nan nan nan nan nan nan nan nan nan nan nan nan nan nan nan nan nan nan nan nan nan nan nan -0 -0 -0 -0 -0 -0 -0 -0 -0 -0 -0 -0 -0 -0 -0 -0 -0 -0 -0 -0 -0 -0 -0 -0 -0 -0 -0 -0 -0 -0 -0
nan nan nan nan nan nan nan nan -0 -0 -0 -0 -0 -0 -0 -0 nan nan nan nan nan nan nan nan nan nan nan nan nan nan nan nan nan nan nan nan nan nan nan nan nan nan nan nan nan nan nan nan nan nan nan nan nan nan nan -0 -0 -0 -0 -0 -0 -0 -0 -0 -0 -0 -0 -0 -0 -0 -0 -0 -0 -0 -0 -0 -0 -0 -0 -0 -0 -0 -0 -0 -0 -0
nan nan nan nan nan nan nan -0 -0 -0 -0 -0 -0 -0 -0 nan nan nan nan nan nan nan nan nan nan nan nan nan nan nan nan nan nan nan nan nan nan nan nan nan nan nan nan nan nan nan nan nan nan nan nan nan nan nan nan -0 -0 -0 -0 -0 -0 -0 -0 -0 -0 -0 -0 -0 -0 -0 -0 -0 -0 -0 -0 -0 -0 -0 -0 -0 -0 -0 -0 -0 -0 -0
nan nan nan nan nan nan nan -0 -0 -0 -0 -0 -0 -0 -0 -0 nan nan nan nan nan nan nan nan nan nan nan nan nan nan nan nan nan nan nan nan nan nan nan nan nan nan nan nan nan nan nan nan nan nan nan nan nan nan nan -0 -0 -0 -0 -0 -0 -0 -0 -0 -0 -0 -0 -0 -0 -0 -0 -0 -0 -0 -0 -0 -0 -0 -0 -0 -0 -0 -0 -0 -0 -0
nan nan nan nan nan -0 -0 -0 -0 -0 -0 -0 -0 -0 -0 -0 -0 -0 -0 -0 -0 -0 -0 -0 -0 nan nan nan nan nan nan nan nan nan nan nan nan nan nan nan nan nan nan nan nan nan nan nan nan nan nan nan nan nan nan -0 -0 -0 -0 -0 -0 -0 -0 -0 -0 -0 -0 -0 -0 -0 -0 -0 -0 -0 -0 -0 -0 -0 -0 -0 -0 -0 -0 -0 -0 -0
nan nan nan nan nan -0 nan nan -0 -0 -0 -0 -0 -0 -0 -0 -0 -0 -0 -0 -0 -0 -0 -0 -0 nan nan nan nan nan nan nan nan nan nan nan nan nan nan nan nan nan nan nan nan nan nan nan nan nan nan nan nan nan nan nan nan -0 -0 -0 -0 -0 -0 -0 -0 -0 -0 -0 -0 -0 -0 -0 -0 -0 -0 -0 -0 -0 -0 -0 -0 -0 -0 -0 -0 -0
-0 -0 -0 -0 -0 -0 -0 -0 -0 -0 -0 -0 -0 -0 -0 -0 -0 -0 -0 -0 -0 -0 -0 nan nan nan nan nan nan nan nan nan nan nan nan nan nan nan nan nan nan nan nan nan nan nan nan nan nan nan nan nan nan nan nan nan nan -0 -0 -0 -0 -0 -0 -0 -0 -0 -0 -0 -0 -0 -0 -0 -0 -0 -0 -0 -0 -0 -0 -0 -0 -0 -0 -0 -0 -0
-0 -0 -0 -0 -0 -0 -0 -0 -0 -0 -0 -0 -0 -0 -0 -0 -0 -0 -0 -0 -0 nan nan nan nan nan nan nan nan nan nan nan nan nan nan nan nan nan nan nan nan nan nan nan nan nan nan nan nan nan nan nan nan nan nan nan nan nan nan nan nan -0 -0 -0 -0 -0 -0 -0 -0 -0 -0 -0 -0 -0 -0 -0 -0 -0 -0 -0 -0 -0 -0 -0 -0 -0
-0 -0 -0 -0 -0 -0 -0 -0 -0 -0 -0 -0 -0 -0 -0 -0 -0 -0 -0 nan nan nan nan nan nan nan nan nan nan nan nan nan nan nan nan nan nan nan nan nan nan nan nan nan nan nan nan nan nan nan nan nan nan nan nan nan nan nan nan nan nan nan nan nan nan nan -0 -0 -0 -0 -0 -0 -0 -0 -0 -0 -0 -0 -0 -0 -0 -0 -0 -0 -0 -0
-9 -4 -1 -1 -1 -2 -3 -1 -0 -0 -0 -0 -0 -0 -0 -0 -0 -0 -0 nan nan nan nan nan nan nan nan nan nan nan nan nan nan nan nan nan nan nan nan nan nan nan nan nan nan nan nan nan nan nan nan nan nan nan nan nan nan nan nan nan nan nan nan nan nan nan nan nan -0 -0 -0 -0 -0 -0 -0 -0 -0 -0 -0 -0 -0 -0 -0 -0 -0 -0
-3 -8 nan -6 -6 nan -1 -0 -0 -0 -0 -0 -0 -0 -0 -0 -0 -0 -0 nan nan nan nan nan nan nan nan nan nan nan nan nan nan nan nan nan nan nan nan nan nan nan nan nan nan nan nan nan nan nan nan nan nan nan nan nan nan nan nan nan nan nan nan nan nan nan nan nan nan nan -0 -0 -0 -0 -0 -0 -0 -0 -0 -0 -0 -0 -0 -0 -0 -0
-0 -0 -0 -0 -0 -0 -0 -0 -0 -0 -0 -0 -0 -0 -0 -0 -0 -0 nan nan nan nan nan nan nan nan nan nan nan nan nan nan nan nan nan nan nan nan nan nan nan nan -0 -0 -0 nan nan nan nan nan nan nan nan nan nan nan nan nan nan nan nan nan nan nan nan nan nan nan nan nan nan nan -0 -0 -0 -0 -0 -0 -0 -0 -0 -0 -0 -0 -0 -0
-0 nan nan nan nan nan nan nan nan nan nan nan nan nan nan nan nan nan nan nan nan nan nan nan nan nan nan nan nan nan nan nan nan nan nan nan nan nan nan -0 -0 -0 -0 -0 -0 -0 nan nan nan nan nan nan nan nan nan nan nan nan nan nan nan nan nan nan nan nan nan nan nan nan nan nan nan nan nan nan -0 -0 -0 -0 -0 -0 -0 nan nan -0
nan nan nan nan nan nan nan nan nan nan nan nan nan nan nan nan nan nan nan nan nan nan nan nan nan nan nan nan nan nan nan nan nan nan nan -0 -0 -0 -0 -0 -0 -0 -0 -0 -0 -0 nan nan nan nan nan nan nan nan nan nan nan nan nan nan nan nan nan nan nan nan nan nan nan nan nan nan nan nan nan nan nan nan -0 -0 -0 -0 -0 -0 -0 -0
nan nan nan nan nan nan nan nan nan nan nan nan nan nan nan nan nan nan nan nan nan nan -0 -0 -0 nan nan nan nan nan nan nan nan nan -0 -0 -0 -0 -0 -0 -0 -0 -0 nan nan -0 nan nan nan nan nan nan nan nan nan nan nan nan nan nan nan nan nan nan nan nan nan nan nan nan nan nan nan nan nan nan nan nan nan -0 -0 -0 -0 -0 -0 -0
nan nan nan nan nan nan nan nan nan nan nan nan nan nan nan nan nan nan -0 -0 -0 -0 -0 -0 -0 -0 -0 nan nan nan nan nan nan nan nan -0 -0 -0 -0 nan nan nan nan -0 -0 -0 nan nan nan nan nan nan nan nan nan nan nan nan nan nan nan nan nan nan nan nan nan nan nan nan nan nan nan nan nan nan nan nan nan -0 -0 -0 -0 -0 -0 -0
nan nan nan nan nan nan nan nan nan nan nan nan nan nan nan nan nan nan nan -0 -0 -0 -0 -0 -0 -0 -0 -0 -0 -0 nan nan nan nan nan nan -0 -0 -0 nan nan -0 -0 -0 -0 -0 -0 -0 -0 -0 -0 nan nan nan nan nan nan nan nan nan nan nan nan nan nan nan nan nan nan nan nan nan nan nan nan nan nan nan nan -0 -0 -0 -0 -0 -0 -0
nan nan nan nan nan nan nan nan nan nan nan nan nan nan nan nan nan nan nan -0 -0 -0 -0 -0 -0 -0 -0 -0 -0 -0 nan nan nan nan -0 -0 -0 -0 -0 nan nan -0 -0 -0 -0 -0 -0 -0 -0 -0 -0 nan nan nan nan nan nan nan nan nan nan nan nan nan nan nan nan nan nan nan nan nan nan nan nan nan nan nan -0 -0 -0 -0 -0 -0 -0 -0
nan nan nan nan nan nan nan nan nan nan nan nan nan nan nan nan nan nan nan -0 -0 -0 nan nan nan nan -0 -0 -0 -0 -0 -0 -0 -0 -0 -0 -0 -0 -0 -0 -0 -0 -0 -0 -0 -0 -0 -0 -0 -0 nan nan nan nan nan nan nan nan nan nan nan nan nan nan nan nan nan nan nan nan nan nan nan nan nan nan nan nan nan nan nan nan nan -0 -0 -0
nan nan nan nan nan nan nan nan nan nan nan nan nan nan nan nan nan nan nan nan nan nan nan nan nan nan -0 -2 -0 -0 -0 -0 -6 -6 -3 -0 -0 -0 -0 -0 -0 -0 -0 -0 -0 -0 -0 -0 -0 -0 -0 nan nan nan nan nan nan nan nan nan nan nan nan nan nan nan nan nan nan nan nan nan nan nan nan nan nan nan nan nan nan nan nan nan nan -0
nan nan nan nan nan nan nan nan nan nan nan nan nan nan nan nan nan nan nan nan nan nan nan nan nan nan -0 nan nan nan -0 -2 -0 -0 -0 -0 -0 -0 -0 -0 -0 -0 -0 -0 -0 -0 -0 -0 -0 -0 -0 -0 -0 -0 nan nan nan nan -0 -0 -0 nan nan nan nan nan nan nan nan nan nan nan nan nan nan nan nan nan nan nan nan nan nan nan nan nan
nan nan nan nan nan nan nan nan nan nan nan nan nan nan nan nan nan nan nan nan nan nan nan nan nan nan -0 -0 nan nan -0 -0 -0 -0 -0 -4 -0 -0 -0 -0 -0 -0 -0 -0 -0 -0 -0 -0 -0 -0 -0 -0 -0 -0 -0 -0 -0 -0 -0 -0 -0 nan nan nan nan nan nan nan nan nan nan nan nan nan nan nan nan nan nan nan nan nan nan nan nan nan
nan nan nan nan nan nan nan nan nan nan nan nan nan nan nan nan nan nan nan nan nan nan nan nan nan nan nan nan -0 -0 -0 -0 -0 -0 -0 -5 -0 -0 -0 -0 -0 -0 -0 -0 -0 -0 -0 -0 -0 -0 -0 -0 -0 -0 -0 -0 -0 -0 -0 -0 -0 -0 nan nan nan nan nan nan nan nan nan nan nan nan nan nan nan nan nan nan nan nan nan nan nan nan
nan nan nan nan nan nan nan nan nan nan nan nan nan nan nan nan nan nan nan nan nan nan nan nan nan nan nan nan nan nan -0 -0 -0 -0 -0 -2 nan nan -0 -0 -0 -0 -0 -0 -0 -0 -0 -0 -0 -0 -0 -0 -0 -0 -0 -0 -0 -0 -0 -0 -0 -0 -0 nan nan nan nan nan nan nan nan nan nan nan nan nan nan nan nan nan nan -0 nan nan nan nan
nan nan nan nan nan nan nan nan nan nan nan nan nan nan nan nan nan nan nan nan nan nan nan -0 -0 -0 -0 -0 nan nan nan -0 -0 -0 -0 -0 -2 -2 -0 -0 -0 -0 -0 -0 -0 -0 -0 -0 -0 -0 -0 -0 -0 -0 -0 -0 -0 -0 nan -0 -0 -0 -0 nan nan nan nan nan nan nan nan nan nan nan nan nan nan nan nan nan nan nan nan nan nan nan
nan nan nan nan nan nan nan nan nan nan nan nan nan nan nan nan nan nan nan -0 -0 -0 -0 -0 -0 -0 -0 nan nan nan nan -0 -0 -0 -0 -0 -0 -0 -0 -0 -0 -0 -0 -0 -0 -0 -0 -0 -0 -0 -0 -0 -0 -0 -0 -0 -0 -0 -0 -0 -0 -0 -0 -0 -0 -0 nan nan nan nan nan -0 -0 -0 nan nan nan nan nan nan nan nan nan nan nan nan
nan nan nan nan nan nan nan nan nan nan nan nan nan nan nan nan nan nan -0 -0 -0 -0 -0 -0 -0 -0 -0 nan nan nan -0 -0 -0 -0 -0 -0 -0 -0 -0 -0 -0 -0 -0 -0 -0 -0 -0 -0 -0 -0 -0 -0 -0 -0 -0 -0 -0 -0 -0 -0 -0 -0 -0 -0 -0 -0 nan nan -0 -0 -0 -0 -0 -0 -0 nan nan nan nan nan nan nan nan nan nan nan
nan nan nan nan nan nan nan nan nan nan nan nan nan nan nan -0 -0 -0 -0 -0 -0 -0 -0 -0 -0 -0 -0 nan nan nan -0 -0 -0 -0 -0 -0 -0 -0 -0 -0 -0 -0 -0 -0 -0 -0 -0 -0 -0 -0 -0 -0 -0 -0 -0 -0 -0 -0 -0 -0 -0 -0 -0 -0 -0 -0 -0 -0 -0 -0 -0 -0 -0 -0 -0 nan nan nan nan nan nan nan nan nan nan nan
nan nan nan nan nan nan nan nan nan nan nan nan nan nan nan -0 -0 -0 -0 -0 -0 -0 -0 -0 -0 -0 -0 nan nan nan -0 -0 -0 -0 -0 -0 -0 -0 -0 -0 -0 -0 -0 -0 -0 -0 -0 -0 -0 -0 -0 -0 -0 -0 -0 -0 -0 -0 -0 -0 -0 -0 -0 -0 -0 -0 -0 -0 -0 -0 -0 -0 -0 -0 -0 -0 nan nan nan nan nan nan nan nan nan nan
nan nan nan nan nan nan nan nan nan nan nan nan nan nan nan -0 -0 -0 -0 -0 -0 -0 -0 -0 -0 -0 nan nan nan nan nan -0 -0 -0 -0 -0 -0 -0 -0 -0 -0 -0 -0 -0 -0 -0 -0 -0 -0 -0 -0 -0 -0 -0 -0 -0 -0 -0 -0 -0 -0 -0 -0 -0 -0 -0 -0 -0 -8 -8 -1 -0 -0 -0 -0 -0 -0 -0 nan nan nan nan nan nan nan nan
nan nan nan nan nan nan nan nan nan nan nan nan nan nan nan nan -0 -0 -0 -0 -0 -0 -0 nan nan nan nan nan nan nan nan nan nan nan nan -0 -0 -0 -0 -0 -0 -0 -0 -0 -0 -0 -0 -0 -0 -0 -0 -0 -0 -0 -0 -0 -0 -0 -0 -0 -0 -0 -0 -0 -0 -0 -0 -0 -6 -6 -0 -0 -0 -0 -0 -0 -0 -0 nan nan nan nan nan nan nan nan
nan nan nan nan nan nan nan nan nan nan nan nan nan nan nan nan nan nan nan -0 -0 -0 nan nan nan nan nan nan nan nan nan nan nan nan nan -0 -0 -0 -0 -0 -0 -0 -0 -0 -0 -0 -0 -0 -0 -0 -0 -0 -0 -0 -0 -0 -0 -0 -0 -0 -0 -0 -0 -0 -0 -0 -0 -0 -0 -0 -0 -0 -0 -0 -0 -0 -0 -0 -0 nan nan nan nan nan nan nan
Wind_Speed
1 1 2 3 2 2 2 3 3 2 2 2 2 2 2 2 2 3 4 3 3 3 3 3 3 3 4 6 7 7 7 7 7 6 6 6 5 5 4 4 4 5 5 5 5 5 5 5 5 5 5 5 6 6 6 7 7 8 8 9 10 10 11 12 12 13 13 13 13 13 13 13 13 12 12 12 11 11 10 10 9 9 9 9 9 9
1 1 2 3 3 2 2 3 3 3 2 2 2 2 2 1 1 1 2 2 1 1 1 1 1 2 3 3 5 6 6 6 5 5 5 5 4 4 4 4 4 4 4 4 4 4 4 4 4 5 5 5 5 5 6 6 7 7 8 9 9 10 11 12 12 13 13 13 13 13 13 13 12 12 11 11 10 10 10 10 10 9 9 9 9 10
1 1 2 2 2 2 2 3 3 3 3 3 2 3 3 3 2 2 2 2 2 1 1 1 1 1 2 2 4 5 5 5 5 4 4 4 3 3 3 2 2 2 2 3 3 3 4 4 4 4 4 4 5 5 5 6 7 8 8 9 10 10 11 12 12 13 13 13 13 13 13 13 12 12 11 11 11 11 11 10 10 10 9 9 10 10
1 2 2 1 2 2 2 3 2 2 2 2 2 3 3 3 3 3 3 3 3 3 3 3 3 2 2 2 3 4 5 5 4 4 4 3 3 2 2 1 1 2 2 3 3 4 4 4 3 3 3 4 5 5 6 7 7 8 9 9 10 11 11 12 12 13 13 13 13 13 13 13 12 12 12 11 11 11 11 11 10 9 9 9 10 10
2 2 2 1 1 2 2 2 2 2 1 1 2 2 2 2 2 2 3 3 3 3 3 3 3 3 2 2 3 4 4 4 4 4 4 4 3 3 2 2 2 3 3 3 3 4 4 3 3 3 4 5 5 6 7 7 8 8 9 10 10 11 11 11 11 11 11 11 11 12 12 12 12 12 12 12 11 11 11 10 10 9 9 9 9 10
1 1 1 1 1 1 1 1 2 2 1 1 1 1 1 1 1 1 1 2 2 2 3 2 2 2 1 1 2 3 3 4 4 4 4 4 4 4 3 3 3 3 3 3 3 3 3 3 3 4 4 5 6 7 7 8 8 9 10 10 10 11 11 11 10 10 10 10 10 11 11 11 11 11 11 11 11 11 11 10 10 9 9 9 10 10
1 1 1 0 0 0 1 1 1 1 1 1 0 0 0 1 1 1 1 1 1 1 1 1 1 1 1 1 2 2 2 2 2 2 2 3 3 3 3 3 3 3 3 2 2 2 3 3 4 5 5 6 7 8 8 9 10 10 11 11 11 11 11 11 11 10 10 10 10 10 10 10 10 10 10 10 10 10 10 10 10 10 10 10 10 11
1 1 0 0 0 0 1 1 1 1 1 1 1 0 1 1 1 1 0 0 0 0 1 1 1 1 0 1 1 1 2 2 2 1 1 1 1 2 3 3 3 4 4 4 4 4 5 5 6 7 7 8 9 9 10 10 11 11 12 12 12 12 12 12 12 11 11 11 10 10 10 10 10 10 10 10 10 10 10 10 10 11 11 11 11 12
1 1 0 0 0 0 0 1 1 1 1 2 2 1 1 0 1 1 1 1 0 1 1 1 1 1 1 1 1 2 2 3 3 3 3 2 2 2 3 3 4 4 5 5 5 6 6 7 7 8 9 10 10 11 11 12 12 12 12 13 13 13 13 13 12 12 12 12 12 11 11 11 11 10 10 10 10 10 10 10 11 11 11 12 12 13
1 1 0 0 0 1 1 1 1 1 0 1 1 2 2 2 1 1 1 1 1 1 1 2 2 2 2 2 2 2 2 2 2 3 3 3 4 4 4 4 4 4 5 5 6 6 7 7 8 9 10 10 11 12 12 12 13 13 13 13 13 13 13 13 13 13 13 13 13 12 12 12 12 12 11 11 11 11 11 11 11 11 12 13 13 14
2 1 1 1 0 0 1 0 0 1 1 1 1 1 1 1 2 2 1 0 1 1 1 1 2 2 2 2 2 2 2 1 1 0 1 2 3 3 3 3 3 4 4 5 5 6 6 7 8 9 10 11 11 12 12 12 13 13 13 13 13 13 13 13 14 14 13 13 13 13 13 13 13 13 13 13 13 13 12 12 12 12 13 13 14 14
1 1 1 1 1 1 1 1 1 1 1 2 2 1 1 1 2 2 2 2 1 1 1 1 1 1 2 2 2 2 2 2 1 1 1 1 1 1 2 2 3 3 4 4 5 5 6 7 8 8 9 10 10 11 11 11 12 12 13 13 13 13 13 14 14 14 14 14 14 14 14 14 14 14 14 14 14 14 14 14 13 13 13 14 14 14
1 1 1 1 1 1 0 1 1 1 1 1 1 1 1 2 2 2 2 2 2 2 2 1 0 1 1 1 2 2 2 2 2 2 2 2 2 2 2 2 3 3 3 4 4 5 5 6 7 8 8 9 9 9 10 10 10 11 12 12 12 13 13 13 14 14 14 14 14 15 15 15 15 15 15 15 15 15 15 14 14 14 14 14 14 14
1 1 1 1 1 0 0 0 0 0 1 1 2 2 2 2 1 2 2 1 1 1 2 2 1 1 1 1 1 2 2 2 2 2 2 2 2 1 2 3 3 3 4 4 4 5 5 5 6 6 7 7 8 8 8 8 9 10 11 11 12 12 13 13 14 14 14 14 14 14 15 15 15 15 15 15 15 15 15 15 14 14 14 14 14 14
0 0 1 1 1 1 1 1 1 1 2 2 2 2 1 1 1 2 2 1 1 1 2 3 2 1 2 1 1 1 2 2 2 2 3 3 2 1 1 2 3 4 4 4 4 5 5 5 5 5 5 6 6 6 6 8 9 9 10 10 11 11 12 12 13 13 13 13 14 14 14 14 14 14 14 14 14 14 14 14 14 14 14 14 14 14
0 0 1 0 0 1 1 1 1 1 2 2 2 1 1 1 2 2 2 2 2 2 2 3 3 1 2 2 2 1 2 2 2 3 3 3 2 1 1 2 3 4 4 4 4 4 4 4 4 4 4 5 5 6 7 8 9 9 10 10 10 11 11 11 12 12 12 12 13 13 13 13 13 13 13 13 14 13 13 13 13 13 13 13 13 13
0 1 1 1 0 1 1 1 1 1 1 1 1 1 2 2 2 2 2 2 2 2 2 2 2 2 1 2 2 2 2 2 3 3 4 4 3 2 0 2 3 4 4 4 4 4 4 4 4 4 4 4 6 7 8 9 9 10 10 10 10 11 11 11 11 12 12 12 12 12 12 12 12 13 13 13 13 13 13 13 13 13 13 13 13 13
1 1 1 1 0 0 1 0 0 0 0 0 1 1 1 1 2 2 2 2 2 2 2 2 2 2 3 1 1 2 2 2 3 4 4 4 3 2 0 1 3 4 4 4 4 4 4 4 4 4 4 6 7 8 9 10 10 11 11 11 11 11 11 11 12 12 12 12 12 12 12 12 13 13 13 13 12 12 12 12 12 12 13 13 13 13
1 1 1 1 0 0 0 0 0 0 1 1 1 1 0 0 1 1 2 2 2 2 2 2 2 2 3 2 1 2 2 2 3 4 4 4 4 2 1 1 3 3 4 4 4 4 4 4 4 5 6 7 8 9 10 10 11 11 11 11 12 12 12 12 12 12 12 13 13 13 13 13 13 13 13 13 13 12 12 12 12 12 13 13 13 13
1 1 1 1 1 1 1 0 0 1 2 2 2 2 2 1 1 2 1 2 2 2 2 3 3 3 2 3 2 1 2 2 3 3 3 4 4 3 1 2 3 4 4 4 4 4 4 4 4 5 6 7 8 9 10 11 11 11 11 12 12 12 12 12 12 13 13 13 13 13 13 13 13 13 13 13 13 13 13 12 13 13 13 13 13 13
1 1 0 1 1 1 0 1 1 2 2 2 2 2 2 2 2 2 2 2 2 2 2 2 3 3 2 3 3 2 2 3 3 3 3 3 3 3 1 2 3 4 5 4 4 4 4 4 4 4 5 7 8 9 10 10 10 11 11 11 11 11 12 12 12 12 13 13 13 13 13 13 13 13 13 13 13 13 13 13 13 13 13 13 13 13
1 1 0 0 1 1 1 1 2 2 2 1 2 2 2 2 3 3 3 2 3 3 3 3 3 3 3 4 4 3 2 2 3 3 3 3 3 3 1 1 2 4 4 4 4 3 4 4 4 5 6 7 8 8 9 9 9 10 10 10 10 10 11 11 11 12 12 13 13 13 13 13 13 13 13 13 13 13 13 13 13 13 13 13 13 13
1 1 0 0 0 1 1 1 1 1 1 1 2 2 2 3 3 3 3 3 3 4 4 4 4 4 5 5 5 4 2 2 2 2 3 3 3 3 1 1 2 3 4 3 3 4 4 4 4 5 6 6 6 6 7 7 8 8 8 8 8 9 9 9 9 10 10 10 11 11 11 11 11 12 12 12 12 12 12 12 12 12 12 12 12 12
1 1 0 0 0 1 1 1 1 0 1 1 2 2 2 2 3 4 4 4 4 4 4 4 5 5 5 5 5 4 3 2 2 2 2 3 3 3 2 2 2 3 4 3 4 4 4 4 4 4 4 4 4 4 5 6 6 7 7 7 7 7 7 7 8 8 8 8 8 8 8 8 9 9 9 9 9 9 10 10 10 10 11 11 11 12
2 1 1 1 1 1 1 1 1 1 1 1 2 2 1 2 3 4 4 4 4 4 4 5 5 5 4 4 3 2 3 3 2 2 2 3 3 3 2 2 3 3 3 4 4 4 5 5 4 4 3 2 2 2 3 5 5 6 6 6 7 7 7 8 8 8 8 8 8 8 8 8 8 8 8 8 8 8 9 9 9 10 10 11 11 11
2 2 2 1 1 1 2 2 2 2 2 3 3 2 2 3 3 4 4 4 4 4 4 5 5 4 3 3 2 1 2 3 2 2 2 2 3 3 3 2 2 3 4 4 4 4 5 5 4 4 3 2 1 2 3 4 5 6 6 6 7 7 8 8 8 9 9 9 8 8 8 8 8 8 8 8 9 9 9 9 10 10 11 11 11 12
2 2 2 2 2 3 3 4 4 5 6 6 6 5 5 4 4 4 4 4 4 4 4 4 4 4 3 3 2 1 1 2 3 2 2 2 3 3 2 2 2 3 4 4 4 4 5 5 4 4 3 2 2 2 3 4 5 6 6 7 7 7 8 8 8 8 9 9 9 9 9 9 9 9 9 9 9 9 10 10 10 11 11 11 10 10
2 3 3 3 3 3 4 4 5 6 7 8 8 8 7 5 5 5 5 4 4 4 4 4 4 4 3 3 2 2 2 1 2 2 2 2 2 3 2 2 2 3 4 4 4 4 5 4 4 3 2 2 2 3 3 5 5 6 7 7 7 8 8 8 8 8 8 8 8 9 9 9 9 9 9 9 10 10 10 10 10 11 10 9 8 7
1 1 2 2 2 2 3 4 6 7 8 9 9 8 7 5 5 5 5 4 4 4 4 5 4 4 3 3 3 3 3 2 1 1 1 2 2 2 2 2 2 2 3 3 3 4 4 3 2 2 2 2 3 3 3 4 5 6 6 7 7 7 7 7 7 7 8 8 8 8 9 9 9 9 9 10 10 10 10 10 10 10 8 8 7 7
2 2 2 2 2 3 4 5 7 8 9 9 9 9 7 6 5 5 5 4 4 4 5 5 4 4 3 3 3 3 3 1 1 2 1 2 2 2 2 2 2 2 3 3 3 3 2 1 1 1 1 2 3 3 3 4 4 4 5 5 6 6 6 6 6 7 7 8 8 8 8 9 9 9 9 10 10 10 10 10 10 8 7 6 6 6
4 4 4 4 4 4 5 5 6 7 7 8 8 8 7 6 5 5 4 4 4 4 5 4 4 4 3 3 3 2 2 1 2 2 1 2 2 2 2 2 2 2 2 2 2 2 2 1 0 0 1 3 3 3 4 4 4 4 4 4 4 4 5 6 6 7 7 7 8 8 8 8 9 9 9 10 10 10 10 10 9 8 6 6 6 6
4 4 4 4 4 4 4 4 5 5 6 6 6 6 6 5 5 4 4 4 4 4 4 4 4 4 3 3 3 2 2 0 2 2 1 1 2 2 2 2 2 2 2 2 2 2 2 2 2 2 2 3 4 4 4 4 4 4 4 4 4 4 5 6 6 7 7 7 7 7 8 8 8 9 9 9 9 10 10 10 9 8 7 6 6 6
5 5 4 4 4 4 4 4 4 4 4 4 4 4 4 4 4 4 3 3 4 4 4 4 4 4 4 4 4 3 3 1 1 2 1 1 2 2 2 2 2 2 2 2 2 3 3 3 3 3 3 3 3 4 4 4 4 3 4 4 4 4 5 6 6 6 6 6 6 6 7 7 7 8 8 8 8 9 9 9 9 8 7 6 6 6
5 5 5 5 5 4 4 4 4 4 4 4 4 3 3 3 3 3 3 3 3 3 3 4 4 4 4 4 3 3 3 2 0 1 1 1 2 2 2 2 3 3 3 3 3 3 3 4 4 4 3 3 3 3 4 4 3 3 3 4 4 4 5 5 5 5 5 5 5 5 5 5 6 6 7 7 7 7 8 8 9 9 9 7 6 6
5 5 5 5 5 4 4 4 4 4 4 3 3 3 3 3 3 3 3 3 3 3 3 3 3 4 4 3 3 3 3 2 1 1 1 2 2 2 2 2 3 3 3 3 3 3 3 4 4 4 4 4 4 3 3 3 3 3 3 3 4 4 4 4 4 4 5 4 4 4 4 4 4 4 5 5 6 6 7 8 9 9 10 9 9 7
5 5 5 5 4 4 4 4 4 3 3 3 2 2 2 3 3 3 3 2 2 3 3 3 3 3 4 4 4 4 4 3 2 2 2 2 2 2 2 3 3 3 3 3 3 3 3 4 4 5 5 4 4 3 3 3 3 3 4 4 4 4 4 4 4 4 4 4 4 4 4 4 4 4 4 5 6 7 8 8 9 10 11 11 11 10
5 5 5 4 4 3 3 3 3 3 3 2 2 2 3 3 3 3 3 2 2 3 3 4 4 4 4 4 5 5 5 4 4 4 4 4 3 3 3 3 3 3 4 4 4 4 4 4 4 5 4 4 4 3 3 3 4 4 4 4 4 5 5 5 5 5 4 4 4 4 4 4 4 4 4 5 6 7 8 9 9 10 10 11 12 12
5 5 4 4 3 3 3 3 3 3 2 2 2 2 3 3 3 3 3 3 3 3 4 4 4 5 6 6 6 6 6 6 6 6 5 5 5 4 5 4 4 4 4 4 4 4 4 4 4 4 4 4 4 4 4 4 4 4 4 4 5 5 5 5 5 4 4 5 5 5 5 5 4 4 5 5 5 5 5 6 6 7 9 9 11 12
4 4 4 3 3 3 3 3 3 2 2 2 2 3 3 3 4 4 4 4 4 4 5 5 5 5 5 6 6 7 7 7 6 5 5 5 5 5 5 5 5 5 5 4 4 4 4 4 4 4 4 4 4 4 4 4 5 5 5 5 5 5 5 4 4 4 4 5 5 5 5 5 4 4 4 4 4 4 4 4 5 5 6 6 7 9
4 4 4 3 3 3 3 3 3 2 2 2 3 3 4 4 4 4 5 4 5 5 6 6 6 5 5 6 7 7 8 7 6 6 5 5 5 5 5 5 5 5 5 4 4 5 5 5 5 5 5 4 4 4 4 4 5 5 6 5 4 4 4 4 4 5 5 5 5 5 4 4 4 4 5 4 4 4 4 4 4 4 5 4 4 5
4 4 3 3 3 3 3 3 3 3 3 3 3 3 4 4 3 3 4 4 4 4 4 4 5 5 5 5 6 7 7 6 6 6 5 5 5 6 5 5 5 5 4 4 4 5 5 5 5 5 5 5 5 6 6 6 6 6 7 5 5 5 5 5 5 5 5 5 5 5 5 5 5 5 5 5 5 5 5 5 5 5 5 5 4 4
4 4 3 3 3 3 3 3 3 3 4 4 4 4 4 3 3 3 3 3 3 3 3 3 3 4 4 5 5 5 5 5 6 6 6 6 6 6 6 6 5 4 4 4 5 5 5 5 6 5 5 5 5 5 6 6 6 6 6 6 6 6 6 6 5 5 5 5 4 5 5 5 5 5 5 5 5 5 5 5 6 6 6 5 5 5
4 4 3 3 3 3 3 4 4 4 4 4 4 4 4 3 3 3 3 3 3 3 3 3 3 3 4 4 4 4 4 5 6 6 6 7 7 7 7 7 6 5 4 4 4 5 5 6 6 6 5 5 5 6 6 6 6 6 6 6 6 5 4 3 3 3 4 4 4 5 5 5 5 5 5 5 5 5 5 6 7 8 7 6 6 6
4 4 4 4 4 4 4 4 4 4 4 5 5 4 4 3 3 3 3 3 3 3 3 3 3 3 4 4 4 4 4 4 5 6 7 7 8 8 8 8 7 6 6 5 4 4 4 5 5 5 5 5 6 6 7 7 6 6 6 6 6 6 5 4 4 4 5 5 5 5 5 5 5 5 5 5 5 5 6 6 6 7 7 7 7 6
4 4 4 4 4 4 4 4 5 5 5 5 4 4 4 3 3 3 3 3 3 3 3 3 3 3 3 3 4 4 3 3 4 5 5 7 8 9 8 8 7 7 7 6 5 5 4 5 5 5 5 5 6 7 7 7 7 7 7 7 7 7 7 6 6 6 6 5 5 5 5 5 5 5 5 5 6 6 6 6 6 6 6 6 6 7
4 4 4 4 4 4 5 5 5 5 5 4 4 4 4 3 3 3 4 4 4 3 3 3 3 3 3 3 3 3 3 3 3 3 3 4 6 7 7 7 7 6 6 6 6 6 6 5 5 5 5 5 6 7 7 7 7 7 7 7 7 6 7 6 6 6 6 6 6 5 5 5 5 5 5 6 6 6 6 6 6 7 6 6 6 7
4 4 4 4 4 4 5 5 5 4 5 5 4 4 4 4 4 4 4 4 4 4 3 3 4 4 4 4 3 3 3 3 3 3 3 3 4 4 5 5 6 6 6 6 6 7 7 7 6 6 6 6 6 7 7 7 7 7 7 7 6 6 6 6 6 6 6 6 6 6 5 5 5 6 6 6 6 6 6 6 6 6 7 7 7 7
4 4 4 4 4 4 4 4 4 4 5 5 5 4 4 4 4 4 4 4 4 4 4 4 4 4 5 5 4 4 4 4 3 3 3 3 3 3 3 4 4 5 6 6 7 7 8 8 8 8 7 7 7 7 8 7 7 7 7 7 6 6 7 6 6 6 6 6 6 6 5 5 5 6 6 6 6 6 6 6 6 6 6 7 7 7
4 4 4 4 4 4 4 4 4 5 5 5 5 5 4 5 5 5 4 4 4 4 4 4 4 4 5 5 4 4 4 4 4 4 3 3 3 3 3 3 3 4 4 5 6 6 7 8 9 10 10 9 8 8 8 8 7 7 7 6 6 6 7 6 6 6 6 6 6 6 6 6 6 6 6 7 7 7 7 7 7 7 7 7 7 7
4 4 4 4 4 4 4 4 5 5 5 5 5 5 5 4 5 5 5 5 4 4 4 5 5 5 5 5 5 4 4 4 4 4 4 3 3 3 3 3 3 3 3 4 4 5 6 6 8 10 12 13 12 10 9 8 8 7 7 6 6 6 6 6 6 6 6 6 6 6 7 6 6 6 5 6 7 8 8 8 7 7 7 7 7 8
4 4 4 4 4 4 4 4 5 5 5 5 5 5 5 5 5 5 5 5 5 5 5 5 5 5 5 5 5 5 5 5 4 4 4 4 3 3 3 3 3 3 3 3 3 3 3 4 4 6 9 13 15 14 10 8 8 7 7 6 6 6 6 6 6 6 6 6 6 6 6 6 6 6 5 6 7 8 8 8 8 7 7 7 7 7
Wind_Direction
64 44 30 13 13 23 36 31 25 20 18 29 38 39 32 32 32 31 27 26 26 27 28 21 16 12 12 15 14 12 10 10 9 8 8 9 10 14 20 24 24 20 15 8 0 353 345 339 335 334 334 337 337 337 335 331 326 322 320 318 317 315 313 311 309 307 305 304 302 300 298 296 295 294 294 296 298 300 300 298 297 296 295 294 292 288
92 77 54 27 24 28 32 26 25 20 7 9 10 7 356 356 10 20 15 16 16 16 19 16 10 9 15 21 18 15 14 13 14 14 14 13 12 14 20 21 17 10 2 353 343 334 326 321 322 327 334 337 336 332 326 319 314 311 309 308 306 305 304 302 301 300 300 300 299 298 296 294 292 290 290 290 291 290 289 286 286 287 287 288 287 286
91 77 61 36 30 28 26 22 20 18 11 7 357 345 333 331 340 351 344 331 323 320 326 328 335 350 9 29 29 26 24 24 26 27 27 25 22 19 19 18 7 351 336 324 314 308 303 305 312 321 329 326 320 313 306 301 298 297 296 296 295 294 293 292 291 291 291 291 291 290 289 288 286 284 283 282 282 282 281 281 283 285 287 290 290 289
65 56 51 37 34 33 27 15 10 10 12 9 355 342 336 333 339 344 340 332 329 329 334 337 342 349 3 24 35 36 29 28 28 29 30 28 23 14 3 344 319 299 286 283 282 283 284 289 295 302 303 298 292 288 288 287 287 287 288 287 288 288 287 287 287 287 287 289 289 288 287 286 284 282 281 279 279 279 280 282 284 287 291 293 294 294
54 43 33 22 29 35 28 11 359 354 8 6 356 347 343 342 343 344 337 335 334 336 340 343 347 353 0 23 37 37 27 21 19 18 17 13 6 354 336 314 293 280 270 269 269 270 272 275 275 277 278 279 279 280 284 284 286 287 289 288 289 290 290 291 291 292 292 293 294 293 292 289 287 285 283 282 280 280 280 282 284 286 289 290 291 290
64 49 25 15 21 26 22 15 354 342 351 354 354 352 353 345 339 332 330 336 336 336 337 336 336 340 358 35 39 35 22 14 9 7 4 0 355 347 337 325 310 296 284 279 276 277 283 284 284 284 287 287 289 290 293 294 295 296 297 297 299 300 301 301 300 299 298 298 297 296 294 291 289 287 285 282 280 279 280 281 283 284 285 285 285 285
87 75 47 34 34 39 33 28 0 342 339 328 321 344 51 344 317 309 320 327 328 325 321 316 313 316 0 62 57 36 11 3 359 356 356 354 353 351 350 347 343 339 333 335 336 334 330 327 320 314 310 308 306 304 303 303 302 302 302 302 302 303 303 303 302 300 298 297 295 294 293 291 289 287 284 282 280 279 279 281 282 283 283 283 283 282
113 115 122 142 151 135 119 82 27 353 335 324 311 280 163 180 202 232 234 248 315 329 324 305 298 306 26 60 50 14 352 346 342 339 350 0 12 13 10 9 8 7 5 4 1 355 348 341 333 326 321 316 312 309 307 305 304 303 301 300 300 300 299 299 297 296 293 292 290 289 287 286 285 284 282 281 280 279 280 281 282 283 284 284 283 282
118 120 117 136 177 158 157 115 89 40 351 333 324 316 304 229 187 180 180 161 108 22 347 330 325 339 25 27 16 0 354 347 347 350 357 7 19 27 28 20 16 12 8 3 357 351 346 339 331 326 321 316 312 309 306 304 302 300 298 296 295 294 293 292 291 290 289 287 286 284 283 282 280 279 278 278 278 278 278 280 281 282 283 283 283 282
124 126 140 118 0 344 315 88 94 89 15 312 310 314 319 324 317 261 198 153 125 83 3 343 338 341 353 358 359 353 348 345 353 3 10 16 19 20 21 13 8 4 358 352 346 341 335 329 324 319 316 312 309 306 304 301 299 296 294 291 290 289 287 287 286 285 284 284 283 282 280 279 277 275 274 274 273 274 275 276 277 279 280 281 281 280
148 152 183 161 141 177 286 1 109 135 193 224 233 241 274 333 331 320 298 178 110 98 56 11 353 345 341 342 344 345 334 318 308 21 54 40 26 18 11 359 352 346 339 332 327 322 319 317 314 312 310 308 305 304 302 299 297 294 292 289 287 285 284 283 282 282 281 281 280 279 278 277 276 274 272 271 271 271 271 273 274 275 277 277 277 277
146 151 191 167 161 173 211 190 176 183 209 223 220 203 153 45 357 331 319 337 4 23 16 20 20 9 354 343 341 338 328 310 295 273 245 264 296 314 323 320 316 313 313 307 302 301 302 304 306 306 305 303 302 301 299 297 294 292 290 287 285 283 281 280 279 279 278 278 277 277 276 275 274 273 272 271 271 270 271 271 272 273 273 273 273 272
113 137 193 180 169 168 186 194 193 195 206 265 316 7 46 36 7 330 316 342 3 6 347 331 347 74 54 8 347 335 322 311 304 294 280 269 273 286 301 301 301 301 301 296 290 289 294 298 299 299 298 298 297 295 294 292 290 287 285 282 280 279 277 276 276 275 275 274 274 273 273 272 271 271 270 270 270 270 270 270 271 270 270 269 268 267
130 174 198 180 150 117 64 319 315 27 50 29 20 16 18 14 344 316 302 340 12 2 321 296 277 162 111 75 19 340 319 309 299 288 277 271 273 289 302 299 297 297 296 292 289 289 296 298 297 294 292 290 290 290 290 288 284 282 279 277 275 273 273 272 272 272 272 271 271 270 269 269 269 268 268 268 268 269 269 269 269 268 267 266 265 264
132 208 207 174 133 97 57 9 14 34 48 41 28 13 355 351 335 322 314 339 351 339 304 287 268 218 133 105 65 0 320 307 298 290 283 277 275 280 294 292 291 291 289 288 288 291 297 295 293 291 289 289 293 298 301 294 287 282 280 276 273 271 270 270 270 270 269 269 269 268 268 268 267 267 267 267 267 267 267 267 267 266 265 264 263 262
330 272 248 201 140 96 65 31 27 38 54 49 30 0 337 353 354 346 334 335 330 321 309 303 291 265 152 125 101 34 336 318 308 302 297 289 280 268 281 292 293 292 292 292 292 294 297 292 290 289 289 295 301 305 305 298 292 288 285 282 279 277 275 274 274 273 272 272 272 271 270 270 269 268 268 267 267 267 266 266 265 265 264 264 263 262
293 282 274 251 180 112 91 65 45 42 52 55 37 17 2 3 357 346 332 323 316 312 312 313 306 299 273 141 121 87 3 337 322 310 301 293 288 285 310 302 299 299 299 296 294 294 295 291 289 288 291 302 305 305 302 299 296 294 292 289 287 284 283 282 281 280 279 278 277 277 276 275 274 273 272 271 270 269 268 267 266 266 265 265 264 263
245 266 269 261 234 109 102 109 100 80 47 50 51 42 31 17 355 335 324 320 317 318 317 309 302 299 299 302 98 92 36 350 326 310 299 292 290 294 19 308 302 299 298 294 292 291 291 291 293 296 300 303 303 301 299 298 296 294 292 291 289 287 286 284 284 283 282 281 281 280 279 279 278 277 276 275 274 272 271 270 269 268 267 266 265 264
229 250 266 271 274 147 189 232 281 318 319 356 349 331 308 0 326 316 318 322 323 324 322 311 302 294 291 304 11 67 50 355 322 305 295 290 289 289 301 301 299 298 295 293 292 292 292 291 292 293 294 295 295 296 296 296 295 293 291 289 288 286 285 283 282 282 281 281 280 279 279 279 278 278 278 277 276 275 274 272 271 270 269 268 267 267
240 237 259 282 272 243 225 180 39 22 15 5 339 314 307 302 296 297 314 319 318 314 308 297 292 288 288 297 319 25 37 344 316 300 291 289 289 292 307 309 305 300 296 294 292 292 291 290 288 287 287 289 292 294 296 296 295 294 291 289 287 285 283 282 281 279 279 278 277 277 277 277 277 277 277 276 276 276 275 274 272 271 270 270 269 268
257 237 225 279 280 276 291 54 61 54 40 7 326 304 305 304 303 304 318 313 303 293 284 279 282 289 301 300 308 327 358 325 310 301 295 292 289 289 309 314 305 299 296 293 292 290 289 288 287 286 285 290 293 296 298 299 298 295 292 290 287 284 282 280 278 277 276 275 274 274 274 274 274 274 274 274 273 273 272 272 271 270 270 269 269 268
280 267 113 278 292 308 349 57 77 78 67 358 316 309 318 317 316 316 318 311 303 296 290 289 294 301 306 297 296 298 304 295 292 294 296 290 286 285 308 310 300 295 294 294 293 292 291 290 288 287 287 291 295 299 302 302 300 298 294 291 287 284 281 278 276 274 272 271 271 270 269 270 270 269 270 270 270 270 270 269 269 269 269 269 269 268
296 296 111 179 290 318 343 34 75 86 78 320 313 318 329 325 319 316 315 310 306 301 299 298 297 293 285 277 273 268 248 240 253 271 282 283 285 290 319 300 293 292 293 297 300 301 297 292 289 287 286 292 297 303 307 306 304 301 297 294 291 288 285 282 281 280 277 277 276 275 274 274 273 273 273 272 273 273 272 273 273 273 273 274 273 273
306 309 105 128 349 347 344 350 0 0 336 311 310 314 317 306 302 299 299 296 293 291 290 286 280 273 263 257 253 243 203 194 207 240 267 278 287 295 306 301 295 294 294 301 304 303 297 291 287 284 281 291 302 309 311 310 307 305 304 303 303 303 305 305 305 305 304 302 301 300 296 294 291 289 287 287 287 286 287 286 285 285 285 284 283 282
334 341 0 0 0 350 326 308 303 298 288 281 281 281 272 268 271 275 277 275 273 271 269 269 269 268 264 259 249 223 161 170 190 222 263 278 287 292 299 300 298 297 300 304 303 299 293 289 286 284 281 289 305 314 311 309 308 309 310 311 314 317 321 322 322 323 321 319 319 318 313 312 308 304 302 301 299 297 298 295 294 293 290 289 287 285
331 333 340 340 329 311 296 292 291 286 278 285 288 288 283 277 274 272 269 265 263 264 267 271 275 278 281 278 269 233 146 162 185 218 256 278 288 292 295 300 303 304 304 303 299 295 290 289 289 290 292 300 300 296 297 300 302 305 308 310 313 316 318 317 316 315 313 311 309 307 305 303 301 298 297 295 294 293 292 290 289 288 287 286 284 282
309 300 297 292 289 286 288 293 296 297 297 301 305 309 308 301 291 282 275 274 275 280 282 283 285 286 285 279 276 265 180 173 186 207 238 269 282 287 292 306 312 310 305 301 297 292 287 285 286 290 296 303 293 279 280 285 290 294 298 301 304 306 308 308 306 304 303 300 298 296 294 292 290 287 285 284 283 283 283 282 282 283 282 282 280 277
319 306 299 295 296 300 304 303 301 299 297 297 300 302 302 296 288 282 280 286 290 290 284 281 282 284 285 283 287 290 284 235 195 185 217 258 274 281 293 306 311 309 304 301 295 287 277 272 272 278 290 297 290 279 273 277 281 285 289 294 297 299 301 302 302 300 298 295 292 290 287 284 282 280 279 278 277 277 278 278 279 280 279 277 274 270
340 324 317 310 309 307 304 295 290 287 286 287 289 291 290 285 280 279 281 289 289 283 275 273 274 278 282 287 291 290 280 265 190 145 197 256 269 276 288 299 306 311 312 307 298 286 267 254 253 264 286 293 290 285 280 279 281 285 288 291 293 295 297 299 300 300 298 294 290 286 283 281 279 277 276 276 276 276 277 278 278 278 276 272 268 266
225 235 248 245 245 254 266 271 274 276 277 279 281 282 280 276 274 275 279 282 279 274 270 269 270 272 278 283 282 274 263 233 127 120 201 261 271 277 290 301 313 321 322 314 307 298 282 251 224 237 284 292 291 291 292 292 293 294 294 294 293 292 295 298 299 298 296 292 288 284 281 279 277 276 275 275 275 275 275 276 276 274 270 266 264 263
260 260 258 253 250 253 260 266 270 272 274 275 275 274 271 269 268 269 273 271 267 265 265 266 267 269 271 274 274 271 265 128 119 128 217 260 273 287 306 311 314 315 315 314 311 308 306 296 266 259 292 295 295 295 297 298 299 299 300 298 295 293 296 297 297 294 291 288 285 282 280 278 276 275 273 273 272 272 272 272 271 269 267 264 263 262
281 280 277 274 272 270 268 269 270 271 271 270 268 265 262 260 260 261 262 260 258 257 259 261 263 264 260 261 266 274 290 65 129 145 208 256 280 296 311 305 301 297 297 296 297 297 300 304 312 317 312 305 302 301 299 297 296 297 298 298 298 296 299 297 295 292 288 286 283 280 277 275 273 272 271 270 269 268 268 267 265 263 262 262 262 263
285 282 280 279 276 273 269 267 266 266 265 265 262 259 255 251 247 246 247 248 249 251 254 257 259 260 257 256 258 265 279 284 147 144 186 253 280 292 294 289 288 289 292 284 278 274 278 289 298 303 304 303 302 300 298 294 293 294 297 299 299 299 300 298 295 292 290 287 283 279 275 272 269 267 266 265 265 264 263 262 261 258 257 259 261 262
283 281 279 276 273 271 269 267 265 262 260 258 255 252 248 240 233 228 227 231 237 243 249 255 259 263 264 262 259 259 263 268 136 103 185 267 277 280 282 282 285 288 290 286 282 279 275 282 289 295 300 301 300 298 296 294 294 295 298 298 298 297 298 297 295 293 292 289 285 279 274 269 264 261 260 260 260 260 260 260 259 257 256 257 259 261
279 278 275 273 271 271 270 268 265 261 256 251 247 243 239 233 225 217 209 212 219 229 239 250 259 265 269 270 269 268 267 276 11 35 339 301 290 286 283 280 282 285 289 288 289 288 285 287 291 297 301 303 300 296 292 294 297 298 297 292 289 288 290 292 292 291 290 286 283 280 277 273 268 263 260 260 261 262 263 263 262 260 258 257 258 259
277 275 272 270 269 270 271 271 268 264 257 249 242 235 233 231 225 216 204 205 213 224 234 244 252 260 266 270 272 275 279 296 320 334 316 301 293 288 283 279 282 286 287 286 286 287 288 290 293 295 296 296 295 294 293 302 307 306 300 294 291 289 290 290 289 287 285 284 283 282 282 282 280 276 271 269 268 269 268 267 265 264 261 259 258 258
274 273 271 268 267 267 269 269 267 264 261 253 242 234 232 231 229 223 211 210 220 234 243 249 252 255 257 263 268 273 280 289 294 296 295 291 286 281 277 277 277 278 277 279 281 284 286 288 290 291 289 287 289 295 304 311 310 307 301 300 299 297 293 288 283 280 278 279 281 283 285 286 284 282 278 274 272 270 268 266 264 263 262 260 259 258
271 270 268 266 263 262 263 263 262 261 263 259 254 247 243 240 239 236 229 223 228 238 248 252 254 254 254 258 263 267 272 276 280 283 284 280 274 269 268 270 269 268 266 269 274 279 281 283 286 287 286 285 288 294 302 305 304 302 300 300 297 293 287 281 277 274 274 276 278 280 281 281 280 278 276 274 272 270 268 266 263 261 261 260 258 257
269 270 271 269 264 260 259 261 262 263 265 267 268 266 262 255 250 245 240 233 232 236 242 249 253 254 252 252 254 256 259 261 263 263 262 259 258 259 260 262 263 263 262 263 265 268 271 274 278 282 287 290 292 293 296 296 297 298 300 299 294 287 281 279 279 278 277 277 276 275 274 272 271 271 273 272 271 270 269 268 266 263 261 260 259 257
270 271 273 271 269 266 266 267 269 272 274 273 271 269 264 259 252 247 242 239 239 240 242 246 251 255 254 252 250 249 248 247 245 242 237 234 238 245 252 254 258 260 259 257 257 258 260 264 268 272 277 283 289 292 293 290 291 293 297 296 292 288 286 289 288 286 281 276 273 271 270 271 272 273 272 269 267 265 264 265 264 261 259 259 262 262
277 276 275 274 272 269 267 269 273 276 276 271 265 259 253 251 250 249 248 247 247 247 249 248 252 256 257 254 252 250 245 242 240 237 229 221 224 232 245 249 252 254 255 253 252 251 253 258 262 266 268 273 278 281 282 282 284 287 290 288 287 289 292 288 283 277 272 269 268 268 271 271 271 269 267 264 262 261 261 262 264 263 259 256 257 261
283 281 282 283 281 277 274 273 271 267 262 257 253 249 246 246 248 251 256 255 254 251 248 249 254 258 260 258 255 251 247 242 238 233 225 216 216 223 234 241 245 248 251 251 251 250 249 253 258 262 266 270 274 277 278 280 281 282 282 282 285 288 288 279 271 263 261 264 265 267 268 269 268 266 265 265 264 264 262 262 262 261 260 257 255 254
281 283 290 293 295 294 291 281 271 261 252 248 245 243 241 242 245 250 254 255 254 251 248 247 252 259 264 266 265 259 250 242 237 232 225 215 213 217 227 235 240 243 246 250 252 252 250 251 253 257 261 265 269 273 277 279 280 279 276 277 280 284 285 279 276 274 274 273 272 271 270 271 271 271 271 271 269 268 264 260 257 254 252 252 251 250
290 293 295 295 292 287 280 269 260 252 247 245 244 242 240 239 241 245 248 249 250 251 250 248 252 257 262 264 264 261 251 237 230 227 227 220 215 215 224 232 237 240 242 246 250 253 254 252 252 254 256 259 262 266 270 273 275 275 274 273 272 271 271 278 284 285 281 276 272 268 268 271 273 275 275 273 271 268 265 260 256 252 248 247 247 247
287 288 285 282 278 272 266 261 256 252 249 248 247 246 243 237 235 237 242 246 249 251 252 253 256 258 259 259 259 258 254 239 226 222 224 222 219 218 222 228 233 237 239 242 245 250 255 256 257 256 256 256 258 261 265 269 271 272 272 271 268 266 265 269 273 275 273 271 269 267 266 269 272 274 274 272 270 268 266 264 263 260 256 252 249 249
266 268 269 269 269 268 267 264 261 258 255 254 252 250 247 239 235 236 240 245 249 252 252 252 253 257 259 261 262 262 259 249 239 230 226 222 218 217 219 225 229 234 237 240 243 247 250 256 260 263 265 262 260 259 260 264 267 269 271 270 269 268 268 267 267 267 267 268 267 267 267 269 271 272 272 272 271 269 266 265 263 263 262 258 255 253
256 261 264 264 265 264 264 262 261 259 258 256 254 250 245 239 235 234 237 240 244 248 249 247 248 251 256 259 261 262 262 260 257 254 249 242 233 227 225 226 229 233 238 241 244 246 248 251 254 258 261 263 263 262 261 261 263 265 269 270 270 270 269 267 266 265 265 265 266 267 268 269 269 269 270 273 274 273 271 268 265 263 262 260 258 256
257 260 263 266 267 268 268 265 262 259 258 257 255 250 244 238 235 235 237 238 240 244 245 244 245 249 253 255 257 258 260 262 263 262 261 260 256 251 244 242 240 240 242 246 249 250 251 250 249 249 250 254 258 262 263 262 262 264 267 268 269 269 268 268 268 267 265 263 262 262 262 263 264 267 272 275 276 276 276 274 271 267 264 262 259 258
254 258 262 266 269 271 271 270 267 265 263 261 259 255 248 239 236 235 237 237 239 241 243 243 246 249 253 254 255 255 255 257 257 257 256 256 254 253 253 253 254 255 255 256 256 256 255 251 247 242 240 241 247 254 260 261 262 263 264 264 265 265 267 268 268 268 266 264 259 253 250 255 259 264 271 275 277 278 279 278 275 272 268 265 262 260
249 251 256 259 263 265 268 269 268 268 266 265 263 260 255 246 238 233 232 233 234 236 239 241 244 247 251 253 254 253 252 252 253 252 251 249 247 245 246 248 252 256 260 260 257 255 254 250 242 235 229 228 231 239 249 254 258 260 261 260 260 262 264 266 266 266 265 265 261 255 251 253 256 259 264 270 274 276 278 277 275 272 269 266 263 260
244 245 247 251 254 257 261 263 265 266 266 266 266 264 260 253 244 236 231 230 230 232 235 237 241 244 249 252 254 254 253 253 253 253 252 250 246 243 242 243 247 252 258 261 260 259 258 259 253 240 227 220 219 222 233 242 250 256 260 259 258 258 260 262 263 263 264 265 264 262 258 257 257 258 259 264 270 274 276 276 275 274 271 268 266 264